Other Public Products
Issued by NWS Grand Forks, ND

Home | Current Version | Previous Version | Text Only | Print | Product List | Glossary Off
Versions: 1 2 3 4 5 6 7 8 9 10 11 12 13 14 15 16 17 18 19 20 21 22 23 24 25 26 27 28 29 30 31 32 33 34 35 36 37 38 39 40 41 42 43 44 45 46 47 48 49 50

000
FPUS83 KFGF 050110
OPUFGF
PRAIRIE TO PINES WEATHER ROUNDUP
NATIONAL WEATHER SERVICE EASTERN NORTH DAKOTA/GRAND FORKS ND
800 PM CDT FRI SEP 04 2015

 **SATELLITE DATA USED TO AUGMENT SKY COVER AT AUTOMATED STATIONS**
 *****  WEATHER ACROSS EASTERN NORTH DAKOTA  *****

CITY           SKY/WX    TMP DP  RH WIND       PRES   REMARKS
GRAND FORKS    MOCLDY    74  68  81 S5        29.82R
GRAND FORKS AF MOCLDY    70  67  89 S1        29.84R
GRAND CITY NWS   N/A     75 N/A N/A S12         N/A
BUXTON         NOT AVBL
DEVILS LAKE    PTCLDY    72  63  73 NE3       29.83R
FARGO          CLOUDY    76  73  91 E6        29.82S
WAHPETON ARPT  PTCLDY    79  68  69 SE9       29.81F
$$

 *****  WEATHER ACROSS CENTRAL AND WESTERN NORTH DAKOTA  *****

CITY           SKY/WX    TMP DP  RH WIND       PRES   REMARKS
JAMESTOWN      CLEAR     75  69  81 SE12      29.82S
BISMARCK       CLEAR     81  67  62 E5        29.79R
MINOT          CLOUDY    66  57  72 N14       29.87R
MINOT AFB      CLOUDY    65  62  87 N15       29.87R
GARRISON         N/A     69  60  73 N8        29.86R
WILLISTON      PTCLDY    71  57  61 NE13      29.88R
DICKINSON      CLEAR     73  62  68 NE18      29.83R
HETTINGER      CLEAR     84  54  35 E7        29.81R
$$

 *****  OTHER OBSERVATIONS NORTHEAST NORTH DAKOTA  *****

CITY           SKY/WX    TMP DP  RH WIND       PRES   REMARKS
WALHALLA       FAIR      68  68 100 MISG      29.86S
LANGDON        FAIR      68  64  88 NW5       29.89R
CAVALIER       FAIR      66  64  94 CALM      29.86R
GRAFTON        FAIR      68  68 100 SE3       29.84R
CANDO          NOT AVBL
FORT TOTTEN      N/A     71  69  92 E5        29.95S
ROLLA          CLOUDY    63  63 100 N9        29.90F
RUGBY          CLOUDY    66  66 100 NE16      29.86R
 ***** THE ABOVE OBSERVATIONS ARE NON NWS ARE NOT QUALITY
        CONTROLLED AND MAY MIS-REPORT RAIN FOR SNOW...
$$

 *****  OTHER OBSERVATIONS SOUTHEAST NORTH DAKOTA *****

CITY           SKY/WX    TMP DP  RH WIND       PRES   REMARKS
COOPERSTOWN    NOT AVBL
VALLEY CITY    FAIR      75  73  94 SE8       29.84S
OAKES            N/A     77  77 100 SE7       29.81R
GWINNER          N/A     79  79 100 SE7       29.82R
SHEYENNE NWR     N/A     77  71  82 E5        29.95S
BUFFALO        NOT AVBL
WYNDMERE         N/A     79  72  78 SE3         N/A
 ***** THE ABOVE OBSERVATIONS ARE NON NWS ARE NOT QUALITY
       CONTROLLED AND MAY MIS-REPORT RAIN FOR SNOW...
$$

  *****  WEATHER ACROSS NORTHERN MINNESOTA  *****

CITY           SKY/WX    TMP DP  RH WIND       PRES   REMARKS
FLAG ISLAND    TSTM      72  68  88 S8G22     29.84R
WARROAD        LGT RAIN  70  64  83 CALM      29.83F
ROSEAU         CLOUDY    72  66  83 CALM      29.83S
HALLOCK        MOCLDY    70  70 100 CALM      29.83R
THF RVR FALLS  MOCLDY    73  72  94 S7        29.84S
HALSTAD        NOT AVBL
FOSSTON        CLOUDY    73  72  94 S5        29.86F
BAUDETTE       LGT RAIN  75  71  87 CALM      29.85F
WASKISH        CLOUDY    75  72  88 CALM      29.87S
CROOKSTON      MOCLDY    75  70  83 S9        29.83S
$$
  *****  WEATHER ACROSS CENTRAL AND WEST MINNESOTA  *****

CITY           SKY/WX    TMP DP  RH WIND       PRES   REMARKS
BEMIDJI        TSTM      74  72  92 SE8       29.89R
PARK RAPIDS    TSTM      74  69  85 S17       29.89S VSB 3/4
WADENA         CLOUDY    77  72  83 S3        29.87S
DETROIT LAKES  CLOUDY    77  72  83 CALM      29.88S
MOORHEAD       CLOUDY    75  73  94 CALM      29.83S
FERGUS FALLS   MOCLDY    79  72  78 S8        29.83S
ELBOW LAKE     FAIR      76  71  85 S8        29.85S
MORRIS MN      MOCLDY    77  70  78 SE9       29.84F
STAPLES        CLOUDY    79  72  78 SE5       29.88S
WHEATON        PTCLDY    73  68  83 SE8       29.84R
$$
  *****  WEATHER ELSEWHERE ACROSS MINNESOTA  *****

CITY           SKY/WX    TMP DP  RH WIND       PRES   REMARKS
DULUTH         PTCLDY    67  61  81 E13       29.97S
INTRNTL FALLS  CLOUDY    78  69  73 SE13G18   29.87F
ELY            PTCLDY    72  61  68 SE13      29.96F
CLOQUET        PTCLDY    64  57  77 E6        29.97R
BRAINERD       MOCLDY    78  72  81 CALM      29.89F
HIBBING        MOCLDY    74  66  76 SE8       29.95R
ALEXANDRIA     CLOUDY    77  70  79 S10       29.90R
SAINT CLOUD    MOCLDY    82  74  76 S10       29.89R
MINNEAPOLIS    MOCLDY    84  72  67 SE8       29.91R
$$

  *****  WEATHER ACROSS SOUTH DAKOTA  *****

CITY           SKY/WX    TMP DP  RH WIND       PRES   REMARKS
SIOUX FALLS    MOCLDY    80  71  74 SE15G26   29.84S
BROOKINGS      MOCLDY    77  70  78 SE12G21   29.87R
WATERTOWN      MOCLDY    78  68  71 S10       29.85R
HURON          PTCLDY    81  72  74 SE12      29.77R
SISSETON         N/A     78  72  81 S8        29.81R
ABERDEEN       PTCLDY    79  70  74 SE7       29.79R
MITCHELL       MOCLDY    81  73  76 SE6       29.77R
PIERRE         MOCLDY    83  66  56 E8        29.73S
MOBRIDGE       CLEAR     83  73  72 E9        29.76R
RAPID CITY     MOCLDY    83  58  42 VRB6      29.79R
$$

  *****  SOME WEATHER IN NEARBY STATES *****

CITY           SKY/WX    TMP DP  RH WIND       PRES   REMARKS
GLASGOW MT     CLOUDY    67  49  52 N18G28    29.91R
GREAT FALLS MT CLOUDY    50  48  93 N8        30.01R
CHEYENNE WY    LGT RAIN  69  48  47 W8        30.03F
SCOTTSBLUFF NE CLOUDY    81  49  32 E8        29.85F
OMAHA NE       PTCLDY    84  69  60 SE17      29.87R
DES MOINES IA  MOCLDY    85  70  60 SE8       29.93S
DAVENPORT IA   CLEAR     75  71  87 S3        29.98R
CHICAGO IL     PTCLDY    73  67  81 E8        30.02F
EAU CLAIRE WI  CLEAR     79  71  76 SE9       29.97R
LA CROSSE WI   CLEAR     80  71  74 E5        29.97R
$$

  *****  SOME NATIONAL WEATHER *****

CITY           SKY/WX    TMP DP  RH WIND       PRES   REMARKS
LA GUARDIA NY  PTCLDY    76  62  62 SE8       30.16R
RALEIGH NC     MOCLDY    76  69  79 VRB3      30.05R
ATLANTA GA     MOCLDY    81  65  58 E7        30.02R
NEW ORLEANS LA MOCLDY    80  73  79 S8        29.95F
OKLAHOMA CITY  MOCLDY    86  66  51 S7        29.92R
ALBUQUERQUE NM CLOUDY    69  56  62 E3        30.12F
SALT LAKE CITY MOCLDY    85  33  15 S21G36    29.71S
LOS ANGELES CA MOSUNNY   72  57  59 W12       29.84S
BOISE ID       PTSUNNY   63  41  45 NW29G37   29.72R HAZE
SEATTLE WA     PTSUNNY   62  48  60 N9        29.99F
$$

*** WEATHER ACROSS MANITOBA...SASKATCHEWAN AND ONTARIO ***
                ***ONTARIO***

CITY           SKY/WX    TMP DP  RH WIND       PRES   REMARKS
GERALDTON      PTCLDY    70  59  68 S3        30.08S
THUNDER BAY    PTCLDY    63  57  82 E9        30.05R
SIOUX LOOKOUT  CLOUDY    73  63  68 SE6       29.92S
TORONTO        CLEAR     73  50  43 E7        30.14R
BIG TROUT LK   CLEAR     66  64  94 NE5       29.96R
PICKLE LAKE    CLOUDY    73  61  64 SE7       29.95F
DRYDEN         PTCLDY    77  63  61 SE10      29.89F
KENORA         CLOUDY    77  68  73 S7        29.84F
$$
                *** MANITOBA***

CITY           SKY/WX    TMP DP  RH WIND       PRES   REMARKS
BRANDON        MOCLDY    61  57  88 N5        29.91R
DAUPHIN        CLOUDY    61  54  77 N10G17    29.96R
ISLAND LAKE    LGT RAIN  63  61  94 N3        29.97R
PILOT MOUND      N/A    N/A N/A N/A N10         N/A
THE PAS        LGT RAIN  63  50  63 N9        30.03S
THOMPSON       MOCLDY    59  48  67 N5        30.02R
WINNIPEG       MOCLDY    70  68  94 W8        29.84R
LYNN LAKE      CLEAR     55  43  62 NW7       30.07R
CHURCHILL      PTCLDY    48  46  93 N9        30.03R
GILLAM         MOCLDY    64  54  68 N5        29.98R
$$
                ***SASKATCHEWAN***

CITY           SKY/WX    TMP DP  RH WIND       PRES   REMARKS
ESTEVAN        CLOUDY    63  52  67 NE13G21   29.93R
KINDERSLEY     NOT AVBL
LLOYDMINSTER   MOCLDY    52  41  66 N8        30.15R
PRINCE ALBERT  MOCLDY    55  45  67 N9        30.09R
REGINA         MOCLDY    57  46  67 NW16G22   30.03R



USA.gov is the U.S. government's official web portal to all federal, state and local government web resources and services.